Regional Weather Roundup
Issued by NWS

Home | Current Version | Previous Version | Graphics & Text | Print | Product List | Glossary On
Versions: 1 2 3 4 5 6 7 8 9 10 11 12 13 14 15 16 17 18 19 20 21 22 23 24 25 26 27 28 29 30 31 32 33 34 35 36 37 38 39 40 41 42 43 44 45 46 47 48 49 50
000
ASUS43 KOAX 211002
RWRNE

WEATHER ROUNDUP FOR NEBRASKA
NATIONAL WEATHER SERVICE OMAHA NE
500 AM CDT MON APR 21 2014

NOTES: SATELLITE DATA IS BEING USED TO AUGMENT CLOUD COVER ABOVE
       12000 FEET.
       "FAIR" INDICATES FEW OR NO CLOUDS BELOW 12,000 FEET WITH NO
       SIGNIFICANT WEATHER AND/OR OBSTRUCTIONS TO VISIBILITY.

  * THESE STATIONS DO NOT REPORT WEATHER SUCH AS RAIN...SNOW OR FOG.

NEZ001>004-019>022-054>056-211100-
NEBRASKA PANHANDLE

CITY           SKY/WX    TMP DP  RH WIND       PRES   REMARKS
SCOTTSBLUFF    MOCLDY    49  25  39 CALM      30.24R
ALLIANCE       PTCLDY    36  28  73 NW6       30.20R WCI  31
CHADRON        CLEAR     35  29  78 CALM      30.21R
KIMBALL        MOCLDY    42  28  57 NW5       30.22R
SIDNEY         MOCLDY    46  28  49 N15       30.20R
$$

NEZ057>060-069>072-079>082-211100-
SOUTHWEST NEBRASKA

CITY           SKY/WX    TMP DP  RH WIND       PRES   REMARKS
NORTH PLATTE   CLEAR     52  31  44 N21G28    30.06R
IMPERIAL       CLEAR     47  33  58 N9        30.11R
LEXINGTON      MOCLDY    55  45  68 N9        30.05R
MCCOOK         CLEAR     53  44  71 N15       30.04R
OGALLALA       PTCLDY    52  26  37 CALM      30.15R
$$

NEZ005>010-023>029-035>040-094-211100-
NORTH CENTRAL NEBRASKA

CITY           SKY/WX    TMP DP  RH WIND       PRES   REMARKS
VALENTINE      CLEAR     48  27  44 N8        30.13R
AINSWORTH      CLEAR     48  32  53 N10       30.10R
BROKEN BOW     PTCLDY    50  36  58 N20       30.04R
O`NEILL        PTCLDY    53  32  45 N16       30.03R
ORD            MOCLDY    53  42  66 N15       30.00R
THEDFORD       CLEAR     51  28  41 N12       30.13R
$$

NEZ041-046>049-061>064-073>077-083>087-211100-
SOUTH CENTRAL NEBRASKA

CITY           SKY/WX    TMP DP  RH WIND       PRES   REMARKS
GRAND ISLAND   CLOUDY    59  54  83 S6        29.96S
AURORA         CLOUDY    58  56  94 W8        29.97R
HASTINGS       CLOUDY    59  53  80 SW6       29.97F
HEBRON         CLOUDY    60  53  78 NW12G22   29.97F
HOLDREGE       CLOUDY    55  52  90 W6        30.01R
KEARNEY *      CLOUDY    57  54  88 W8        29.99R
YORK           LGT RAIN  57  55  94 SW9       29.96R
$$

NEZ011>018-030>034-042>045-211100-
NORTHEAST NEBRASKA

CITY           SKY/WX    TMP DP  RH WIND       PRES   REMARKS
NORFOLK        CLOUDY    57  51  80 W7        29.94R
ALBION         CLOUDY    57  48  70 NW12      29.96S
BLAIR          CLOUDY    60  55  82 S5        29.93S
COLUMBUS *     CLOUDY    61  50  67 W10       29.97R
FREMONT        CLOUDY    60  56  88 SE6       29.91F
TEKAMAH        CLOUDY    61  56  83 S10       29.91F
$$

NEZ050>053-065>068-078-088>093-211100-
SOUTHEAST NEBRASKA

CITY           SKY/WX    TMP DP  RH WIND       PRES   REMARKS
LINCOLN        CLOUDY    59  56  89 S8        29.93F FOG
OMAHA EPPLEY   LGT RAIN  61  58  90 SE5       29.93F
BEATRICE       CLOUDY    59  55  88 W5        29.95F
FALLS CITY     MOCLDY    62  56  80 S7        29.94S
NEBRASKA CITY  MOCLDY    60  58  96 SW8       29.94S
PLATTSMOUTH    CLOUDY    60  56  88 W3        29.94S
$$

NEZ044-045-051>053-067-211100-
OMAHA AREA

CITY           SKY/WX    TMP DP  RH WIND       PRES   REMARKS
OMAHA EPPLEY   LGT RAIN  61  58  90 SE5       29.93F
BLAIR          CLOUDY    60  55  82 S5        29.93S
FREMONT        CLOUDY    60  56  88 SE6       29.91F
MILLARD        CLOUDY    61  56  83 CALM      29.92F
OFFUTT AFB     CLOUDY    57  57 100 E3        29.93F
PLATTSMOUTH    CLOUDY    60  56  88 W3        29.94S
WAHOO          CLOUDY    58  54  88 CALM      29.92S
$$



USA.gov is the U.S. government's official web portal to all federal, state and local government web resources and services.